Date,TemperatureHighF,TemperatureAvgF,TemperatureLowF,DewpointHighF,DewpointAvgF,DewpointLowF,HumidityHigh,HumidityAvg,HumidityLow,PressureMaxIn,PressureMinIn,WindSpeedMaxMPH,WindSpeedAvgMPH,GustSpeedMaxMPH,PrecipitationSumIn
2013-1-1,40,34,24,20,12,5,78,43,26,30.18,30.07,15,4,25,0.01
2013-1-2,52,40,33,26,10,4,57,30,17,30.17,30.06,11,3,23,0.00
2013-1-3,50,39,29,13,10,5,49,31,16,30.20,30.09,8,2,22,0.00
2013-1-4,52,38,29,16,7,2,42,29,13,30.24,30.14,7,1,15,0.00
2013-1-5,50,42,32,11,8,4,39,25,15,30.24,30.06,8,2,21,0.00
2013-1-6,44,36,33,34,30,8,96,81,27,30.06,29.93,10,2,18,0.09
2013-1-7,42,34,30,35,31,27,96,88,74,30.13,29.99,7,2,13,0.05
2013-1-8,63,46,30,33,26,21,88,50,24,30.19,30.07,8,1,14,0.02
2013-1-9,62,50,40,40,29,26,97,47,26,30.19,29.90,13,2,25,0.00
2013-1-10,40,30,28,39,25,20,98,80,70,29.96,29.83,16,10,31,0.01
2013-1-11,29,27,23,22,20,15,83,74,64,30.03,29.95,14,7,27,0.01
2013-1-12,35,26,19,23,18,13,84,72,56,30.04,29.96,8,1,15,0.00
2013-1-13,34,25,18,22,15,1,84,68,35,30.04,29.94,8,2,17,0.00
2013-1-14,35,26,16,2,-2,-5,48,30,21,30.24,30.03,11,2,23,0.00
2013-1-15,46,34,23,16,7,-3,42,32,23,30.36,30.23,10,2,17,0.00
2013-1-16,54,43,32,19,15,10,52,34,21,30.37,30.24,8,2,17,0.00
2013-1-17,56,50,42,12,6,2,29,16,12,30.29,30.19,15,9,28,0.00
2013-1-18,57,50,39,7,4,1,25,16,11,30.24,30.15,14,6,24,0.00
2013-1-19,58,50,38,5,2,-1,24,14,9,30.27,30.18,15,6,24,0.00
2013-1-20,59,46,32,6,3,-1,29,18,9,30.23,30.12,12,4,21,0.00
2013-1-21,61,48,36,5,2,-1,24,16,8,30.19,30.13,15,4,26,0.00
2013-1-22,60,51,34,10,6,2,28,16,11,30.17,30.10,15,6,25,0.00
2013-1-23,58,53,49,28,12,7,44,19,15,30.12,30.04,16,7,28,0.00
2013-1-24,51,48,45,47,43,27,96,84,43,30.19,30.05,13,4,26,0.25
2013-1-25,51,48,46,46,43,39,96,82,71,30.19,30.00,9,4,18,0.14
2013-1-26,48,46,44,47,44,39,100,95,83,30.00,29.91,11,3,16,0.14
2013-1-27,44,35,32,41,31,25,98,85,71,29.98,29.91,13,7,23,0.07
2013-1-28,34,32,30,27,25,23,84,77,64,30.12,29.96,12,6,23,0.02
2013-1-29,42,35,30,32,29,25,89,80,61,30.21,30.10,12,6,21,0.00
2013-1-30,59,46,31,33,28,26,84,51,28,30.30,30.20,10,2,16,0.00
2013-1-31,61,50,37,31,27,24,67,44,24,30.26,30.17,10,2,16,0.00
2013-2-1,63,48,35,32,27,22,67,46,21,30.24,30.14,7,1,14,0.00
2013-2-2,59,51,42,41,27,20,80,42,23,30.27,30.19,10,2,17,0.01
2013-2-3,56,48,40,41,36,26,80,64,34,30.22,30.08,9,2,15,0.01
2013-2-4,62,47,33,41,29,19,75,53,19,30.12,30.03,6,1,13,0.00
2013-2-5,62,47,36,42,30,22,98,56,24,30.06,29.94,11,3,19,0.00
2013-2-6,45,38,28,41,36,25,100,90,69,30.10,29.99,11,4,19,0.02
2013-2-7,52,36,26,36,25,10,96,68,18,30.09,29.85,10,2,19,0.00
2013-2-8,36,32,30,31,28,25,95,87,73,29.85,29.73,15,7,25,0.17
2013-2-9,38,32,29,29,24,16,92,72,48,29.98,29.80,10,5,17,0.03
2013-2-10,42,33,25,27,21,16,73,62,46,29.98,29.89,9,2,14,0.01
2013-2-11,46,35,25,22,16,10,82,50,24,30.17,29.97,8,2,14,0.00
2013-2-12,51,37,24,23,18,10,69,48,22,30.26,30.17,8,1,17,0.00
2013-2-13,57,40,26,32,24,14,78,58,19,30.25,30.15,8,2,15,0.00
2013-2-14,60,47,32,27,21,18,75,40,21,30.24,30.13,13,4,25,0.00
2013-2-15,62,51,37,22,17,11,55,28,15,30.30,30.22,15,6,27,0.00
2013-2-16,60,51,38,31,14,9,48,25,13,30.29,30.02,13,4,22,0.00
2013-2-17,56,46,37,34,28,15,71,50,32,30.02,29.91,9,3,17,0.00
2013-2-18,58,45,30,38,27,19,90,53,24,29.98,29.85,11,2,16,0.00
2013-2-19,39,35,28,35,31,25,99,87,63,29.87,29.56,15,5,24,0.01
2013-2-20,30,27,25,29,26,23,98,94,85,29.92,29.56,15,8,28,0.07
2013-2-21,39,33,29,31,28,25,89,82,67,30.06,29.87,8,3,14,0.13
2013-2-22,47,35,24,33,25,18,85,67,39,30.16,30.05,7,1,13,0.02
2013-2-23,43,39,34,33,30,25,86,70,60,30.13,29.94,18,9,32,0.00
2013-2-24,48,38,29,31,12,2,92,40,15,30.17,30.02,12,3,21,0.00
2013-2-25,54,40,25,26,16,7,59,40,20,30.19,30.05,10,3,18,0.00
2013-2-26,53,41,32,37,29,23,81,62,39,30.16,30.04,8,2,20,0.00
2013-2-27,56,42,31,30,16,8,82,39,15,30.32,30.15,9,2,14,0.00
2013-2-28,58,44,29,29,22,15,58,44,23,30.42,30.31,7,2,14,0.00
2013-3-1,66,51,33,26,20,14,68,35,15,30.41,30.27,16,4,24,0.00
2013-3-2,69,55,40,30,23,18,44,31,15,30.32,30.12,13,3,22,0.00
2013-3-3,57,51,44,37,30,20,68,47,27,30.15,29.95,13,6,26,0.00
2013-3-4,55,48,42,42,38,28,81,67,52,30.06,29.98,10,3,16,0.00
2013-3-5,63,50,39,34,24,12,66,39,18,30.05,29.91,15,4,24,0.00
2013-3-6,47,41,35,39,35,27,92,79,54,30.01,29.90,12,3,21,0.05
2013-3-7,49,41,37,37,34,25,97,75,50,29.90,29.72,8,1,13,0.05
2013-3-8,40,34,29,35,32,28,99,91,71,29.92,29.66,12,4,22,0.39
2013-3-9,37,34,32,35,32,27,99,93,84,30.22,29.92,15,6,19,0.09
2013-3-10,59,43,28,39,28,10,94,62,17,30.27,30.20,12,2,21,0.01
2013-3-11,67,48,33,43,27,11,81,51,12,30.24,30.10,8,2,18,0.00
2013-3-12,70,53,36,45,23,14,74,38,12,30.20,30.09,13,3,22,0.00
2013-3-13,75,58,41,41,24,18,53,30,12,30.24,30.15,12,3,22,0.00
2013-3-14,79,60,44,48,32,22,60,37,14,30.20,30.14,12,2,22,0.00
2013-3-15,68,57,48,53,46,34,82,67,46,30.16,30.03,9,3,17,0.00
2013-3-16,60,54,46,48,44,33,92,71,52,30.05,29.98,17,6,27,0.00
2013-3-17,59,51,43,41,37,30,78,60,39,30.09,29.98,18,8,27,0.00
2013-3-18,60,51,43,38,35,28,77,55,36,30.09,30.01,9,4,15,0.00
2013-3-19,64,54,45,36,32,25,61,45,27,30.14,30.03,11,5,20,0.00
2013-3-20,59,52,43,43,39,33,84,64,42,30.11,30.01,16,7,25,0.00
2013-3-21,52,47,45,46,42,37,92,81,68,30.01,29.89,14,7,24,0.00
2013-3-22,51,45,38,40,36,32,91,72,48,30.01,29.89,12,6,20,0.00
2013-3-23,58,46,34,37,27,22,85,51,26,30.06,29.98,9,2,14,0.00
2013-3-24,63,51,38,32,26,15,55,39,25,30.06,29.96,11,3,18,0.00
2013-3-25,65,53,42,34,27,17,51,37,27,30.00,29.93,9,2,18,0.00
2013-3-26,62,52,44,35,30,25,59,45,27,29.96,29.91,7,4,18,0.00
2013-3-27,61,53,46,42,38,35,77,59,39,30.01,29.90,12,6,20,0.00
2013-3-28,62,52,44,46,41,32,93,68,32,30.07,29.99,12,4,21,0.00
2013-3-29,73,56,39,44,35,23,79,50,17,30.11,30.04,10,2,20,0.00
2013-3-30,71,58,43,39,31,-100,61,38,21,30.10,30.00,12,2,19,0.00
2013-3-31,56,50,46,46,43,39,92,77,54,30.08,30.00,8,3,14,0.04
2013-4-1,55,47,42,43,38,36,89,73,51,30.10,30.03,12,5,21,0.03
2013-4-2,58,50,44,45,42,37,93,75,52,30.12,30.06,10,4,18,0.00
2013-4-3,73,56,38,47,38,26,83,56,18,30.13,30.04,8,2,17,0.00
2013-4-4,61,55,47,48,42,35,82,62,42,30.13,30.01,13,5,30,0.00
2013-4-5,52,50,47,47,44,40,88,79,66,30.11,30.04,14,7,21,0.00
2013-4-6,55,48,44,44,42,39,98,79,56,30.13,30.06,12,6,24,0.00
2013-4-7,57,50,46,43,40,38,88,71,51,30.10,29.82,16,9,24,0.00
2013-4-8,50,40,33,41,34,26,95,80,65,29.83,29.62,22,11,36,0.06
2013-4-9,53,43,34,35,27,20,84,55,28,30.08,29.82,13,6,22,0.01
2013-4-10,66,51,34,31,25,16,61,38,21,30.16,30.06,9,3,17,0.00
2013-4-11,65,57,49,43,37,29,71,48,38,30.08,29.84,13,4,20,0.00
2013-4-12,70,57,45,46,43,38,82,62,39,29.93,29.83,9,2,24,0.00
2013-4-13,66,59,49,44,36,22,71,47,19,29.92,29.80,17,7,27,0.00
2013-4-14,59,53,46,45,39,28,86,60,41,29.84,29.74,23,11,35,0.00
2013-4-15,53,46,39,40,34,27,93,66,41,29.80,29.70,21,15,36,0.00
2013-4-16,46,38,30,30,25,20,85,60,37,29.96,29.75,20,11,29,0.00
2013-4-17,51,42,32,24,20,16,66,43,25,30.19,29.96,11,5,23,0.00
2013-4-18,63,48,31,20,14,6,56,30,12,30.24,30.17,10,3,18,0.00
2013-4-19,67,53,35,29,20,11,47,30,12,30.24,30.08,13,3,22,0.00
2013-4-20,72,59,49,41,34,25,52,39,17,30.10,30.02,8,4,19,0.00
2013-4-21,74,62,50,37,33,26,50,36,17,30.08,30.01,10,3,19,0.00
2013-4-22,74,64,54,36,31,23,48,31,18,30.05,29.91,12,6,20,0.00
2013-4-23,72,63,52,38,26,15,55,29,12,30.01,29.91,14,6,27,0.00
2013-4-24,73,67,54,43,22,12,63,23,10,29.91,29.82,14,6,26,0.00
2013-4-25,64,55,45,45,41,39,79,61,44,30.12,29.91,10,4,19,0.00
2013-4-26,71,59,47,46,43,39,76,57,37,30.24,30.11,9,3,18,0.00
2013-4-27,76,63,51,44,42,38,70,48,26,30.24,30.14,10,3,20,0.00
2013-4-28,77,66,55,45,41,34,60,41,25,30.15,29.99,11,5,17,0.00
2013-4-29,77,67,55,44,36,26,42,32,23,30.01,29.85,12,5,22,0.00
2013-4-30,73,64,56,45,41,34,59,43,27,29.89,29.80,14,7,22,0.00
2013-5-1,75,63,46,38,16,-5,53,23,5,30.20,29.89,17,6,32,0.00
2013-5-2,73,62,50,4,-1,-8,13,8,5,30.29,30.19,19,7,33,0.00
2013-5-3,79,63,42,28,12,0,27,14,5,30.20,29.91,8,2,16,0.00
2013-5-4,76,66,55,34,28,21,42,25,13,29.91,29.68,13,4,22,0.00
2013-5-5,64,54,47,36,28,13,61,38,22,29.84,29.69,18,5,35,0.00
2013-5-6,60,52,45,45,38,33,92,62,38,29.93,29.82,13,4,23,0.05
2013-5-7,52,47,43,43,41,37,96,80,62,30.00,29.91,12,4,21,0.06
2013-5-8,58,54,50,46,44,42,84,69,60,30.09,30.03,10,5,17,0.00
2013-5-9,63,54,49,48,46,44,88,75,53,30.14,30.06,10,3,18,0.00
2013-5-10,73,62,53,51,46,-100,81,61,43,30.22,30.12,9,4,20,0.00
2013-5-11,83,69,54,52,42,-100,75,45,15,30.22,30.14,8,2,18,0.00
2013-5-12,85,73,62,52,47,41,63,42,23,30.24,30.11,11,4,19,0.00
2013-5-13,84,73,61,46,41,35,48,33,21,30.17,30.05,12,4,25,0.00
2013-5-14,77,68,58,43,36,28,51,32,18,30.06,29.96,16,6,29,0.00
2013-5-15,77,67,58,46,39,29,58,38,22,30.06,29.98,16,7,26,0.00
2013-5-16,65,54,50,42,26,-100,75,53,39,30.01,29.93,13,8,21,0.00
2013-5-17,61,54,49,45,38,-100,86,63,44,30.03,29.91,15,8,26,0.00
2013-5-18,66,57,47,38,32,24,66,41,24,30.08,30.03,13,8,25,0.00
2013-5-19,69,60,50,41,35,24,61,40,26,30.08,30.01,11,6,29,0.00
2013-5-20,80,65,47,39,30,20,69,32,11,30.09,30.00,10,4,22,0.00
2013-5-21,78,68,57,39,30,19,46,26,14,30.03,29.87,15,6,24,0.00
2013-5-22,58,51,43,41,33,21,69,50,35,29.90,29.81,14,7,25,0.00
2013-5-23,60,50,42,25,20,15,42,31,19,29.96,29.82,14,7,25,0.00
2013-5-24,67,55,43,33,28,24,52,36,26,29.97,29.93,10,5,17,0.00
2013-5-25,69,58,49,32,28,11,50,33,11,30.00,29.94,12,7,21,0.00
2013-5-26,65,55,47,40,38,32,69,52,35,30.06,29.99,15,10,26,0.00
2013-5-27,66,56,47,45,40,33,86,58,36,30.06,29.95,18,10,32,0.00
2013-5-28,59,53,48,51,47,43,92,81,65,29.97,29.87,17,10,30,0.00
2013-5-29,69,58,50,50,46,41,94,67,38,29.94,29.84,16,8,34,0.00
2013-5-30,72,61,50,45,42,37,70,50,29,30.00,29.91,13,7,21,0.00
2013-5-31,78,66,53,41,37,29,50,36,26,30.05,29.98,8,3,16,0.00
2013-6-1,88,71,54,45,36,16,55,33,8,30.05,29.93,13,1,21,0.00
2013-6-2,88,74,57,42,35,24,39,25,13,29.93,29.79,11,3,19,0.00
2013-6-3,83,72,60,47,43,37,51,36,26,29.91,29.80,9,2,18,0.00
2013-6-4,80,69,59,50,47,42,59,45,31,30.01,29.89,9,3,19,0.00
2013-6-5,81,70,59,52,49,45,67,49,34,30.03,29.97,8,2,16,0.00
2013-6-6,84,72,61,54,51,47,63,48,32,30.02,29.94,7,3,17,0.00
2013-6-7,90,76,62,56,52,47,61,45,26,30.00,29.91,11,2,18,0.00
2013-6-8,99,82,68,56,46,23,57,33,7,29.94,29.86,12,3,25,0.00
2013-6-9,90,79,67,53,31,3,54,24,4,29.94,29.89,11,3,27,0.00
2013-6-10,73,65,54,48,39,17,69,42,15,30.00,29.86,13,4,21,0.00
2013-6-11,84,72,56,49,40,29,53,34,14,30.03,29.96,10,3,17,0.00
2013-6-12,83,72,58,51,42,31,56,34,18,30.03,29.98,11,4,19,0.00
2013-6-13,74,65,55,40,31,22,51,29,18,30.09,30.01,13,6,25,0.00
2013-6-14,78,66,53,38,32,25,42,29,20,30.03,29.91,9,3,19,0.00
2013-6-15,80,68,56,36,30,16,41,25,10,30.01,29.91,9,4,23,0.00
2013-6-16,77,67,58,40,31,22,48,27,16,30.11,30.01,14,8,25,0.00
2013-6-17,76,66,57,39,36,33,50,34,22,30.10,30.03,12,8,22,0.00
2013-6-18,74,64,54,45,39,31,68,43,23,30.04,29.92,13,8,23,0.00
2013-6-19,65,56,45,44,37,33,76,51,31,29.99,29.93,14,8,24,0.00
2013-6-20,69,57,49,36,34,29,59,44,24,29.99,29.94,10,7,19,0.00
2013-6-21,73,72,69,35,33,27,27,24,18,29.99,29.95,11,9,21,0.00
2013-6-22,77,72,57,37,33,29,47,25,21,29.98,29.92,10,6,25,0.00
2013-6-23,74,67,61,44,36,28,51,33,21,29.94,29.84,16,8,26,0.00
2013-6-24,70,60,53,52,48,43,83,65,48,29.96,29.84,15,7,26,0.00
2013-6-25,78,66,55,54,52,47,89,62,37,30.06,29.96,10,5,20,0.00
2013-6-26,81,72,60,59,56,52,80,58,42,30.15,30.05,10,5,19,0.00
2013-6-27,87,74,64,58,56,53,78,56,33,30.19,30.13,9,3,20,0.00
2013-6-28,89,78,66,58,55,52,67,47,30,30.19,30.08,8,3,16,0.00
2013-6-29,92,81,70,55,51,47,53,36,23,30.10,30.00,10,4,24,0.00
2013-6-30,96,83,72,52,49,46,41,32,21,30.03,29.94,10,3,18,0.00
2013-7-1,94,82,72,53,49,46,45,33,20,30.05,29.96,7,2,14,0.00
2013-7-2,95,83,69,53,48,41,50,32,17,30.09,30.04,15,4,25,0.00
2013-7-3,91,81,72,52,46,41,42,30,21,30.09,29.94,8,3,17,0.00
2013-7-4,93,83,73,53,49,45,43,32,22,29.98,29.88,10,4,20,0.00
2013-7-5,92,82,72,56,50,38,54,35,18,29.93,29.85,10,4,23,0.00
2013-7-6,90,77,66,42,36,28,38,23,15,29.92,29.86,12,3,19,0.00
2013-7-7,91,79,66,41,35,28,39,22,11,30.00,29.91,11,3,18,0.00
2013-7-8,90,78,66,41,32,-100,29,21,10,30.12,30.00,13,4,24,0.00
2013-7-9,91,80,67,42,32,23,28,19,10,30.16,30.10,10,4,19,0.00
2013-7-10,91,78,72,44,36,-100,33,23,13,30.13,30.03,8,2,20,0.00
2013-7-11,82,75,68,46,43,33,40,32,21,30.08,29.98,8,2,16,0.00
2013-7-12,86,73,62,41,37,31,39,27,15,30.03,29.97,9,3,24,0.00
2013-7-13,87,77,63,43,37,31,41,25,15,30.08,30.02,11,5,21,0.00
2013-7-14,87,77,66,37,33,25,27,20,13,30.09,30.01,10,4,33,0.00
2013-7-15,87,76,65,41,33,26,28,21,15,30.03,29.90,11,2,20,0.00
2013-7-16,83,71,61,37,30,22,34,22,16,30.08,29.94,10,3,19,0.00
2013-7-17,83,71,60,47,42,37,56,37,20,30.15,30.07,8,3,17,0.00
2013-7-18,84,71,60,46,40,33,43,33,24,30.15,30.04,7,3,16,0.00
2013-7-19,90,76,64,44,41,39,41,30,19,30.08,29.96,9,2,15,0.00
2013-7-20,93,79,68,46,40,-100,34,26,16,30.00,29.90,8,2,15,0.00
2013-7-21,91,80,67,52,45,39,39,29,19,30.04,29.92,11,2,18,0.00
2013-7-22,85,74,69,62,54,49,71,51,34,30.08,29.99,8,2,14,0.07
2013-7-23,85,75,64,54,51,48,67,45,29,30.10,30.04,8,2,16,0.03
2013-7-24,85,75,65,55,51,46,69,45,27,30.10,30.03,11,4,19,0.00
2013-7-25,88,77,68,49,47,46,49,36,25,30.15,30.06,10,4,19,0.00
2013-7-26,85,76,68,59,53,47,67,46,31,30.19,30.13,7,2,12,0.03
2013-7-27,88,77,68,53,50,47,55,40,27,30.14,29.98,9,3,17,0.03
2013-7-28,87,77,68,50,46,39,50,35,21,30.01,29.91,15,5,20,0.00
2013-7-29,87,76,64,48,45,38,53,36,18,30.10,29.96,11,4,20,0.00
2013-7-30,85,74,62,51,47,43,57,40,26,30.16,30.10,13,3,19,0.00
2013-7-31,83,69,58,49,44,41,56,42,24,30.16,30.06,8,3,17,0.00
2013-8-1,79,69,60,46,37,32,58,33,19,30.09,30.01,14,7,21,0.00
2013-8-2,78,68,60,36,31,25,41,26,16,30.03,29.99,9,5,17,0.00
2013-8-3,85,72,59,32,26,22,28,19,10,30.05,30.00,8,3,18,0.00
2013-8-4,88,74,59,36,31,25,31,21,11,30.08,30.01,10,3,16,0.00
2013-8-5,84,72,60,41,36,31,38,28,19,30.08,30.01,10,3,16,0.00
2013-8-6,84,71,60,43,40,31,48,33,16,30.09,30.03,10,4,18,0.00
2013-8-7,77,68,60,47,41,31,59,38,23,30.11,30.06,10,6,24,0.00
2013-8-8,77,66,55,48,42,33,76,43,22,30.07,29.98,10,5,17,0.00
2013-8-9,79,66,56,45,42,39,59,43,26,30.03,29.96,10,3,18,0.00
2013-8-10,76,67,58,46,44,40,64,44,28,30.08,30.03,9,5,20,0.00
2013-8-11,79,68,57,48,44,40,63,44,31,30.08,30.01,10,4,17,0.00
2013-8-12,81,69,59,46,43,41,56,41,24,30.08,30.02,11,4,17,0.00
2013-8-13,85,72,60,46,40,-100,54,34,21,30.08,30.03,11,4,17,0.00
2013-8-14,86,73,64,44,38,-100,45,31,19,30.07,30.01,7,4,19,0.00
2013-8-15,88,66,60,43,21,-100,46,26,18,30.09,30.03,11,3,16,0.00
2013-8-16,87,74,65,48,37,-100,41,28,22,30.10,30.06,11,3,17,0.00
2013-8-17,87,74,66,47,41,-100,42,32,21,30.10,29.98,8,3,17,0.00
2013-8-18,92,77,60,55,44,33,52,33,16,30.05,29.94,13,4,32,0.00
2013-8-19,89,73,68,55,39,-100,51,38,22,30.07,29.96,16,6,32,0.01
2013-8-20,92,77,64,52,36,-100,59,30,8,30.02,29.95,10,3,18,0.00
2013-8-21,91,80,69,46,36,29,35,21,15,30.04,29.98,18,4,32,0.00
2013-8-22,91,79,68,47,39,31,39,26,12,30.05,29.96,12,3,25,0.00
2013-8-23,84,72,57,47,42,31,54,36,15,30.01,29.90,9,2,17,0.00
2013-8-24,83,70,56,46,39,-100,51,35,21,30.00,29.91,7,2,20,0.00
2013-8-25,82,70,52,45,39,20,58,35,11,30.05,29.98,9,2,17,0.00
2013-8-26,81,69,56,58,48,37,68,49,32,30.07,29.98,10,3,18,0.00
2013-8-27,78,67,60,57,54,52,77,65,48,30.02,29.98,9,2,18,0.00
2013-8-28,88,80,68,53,48,45,48,34,23,30.06,29.97,13,5,23,0.00
2013-8-29,86,73,61,52,48,44,61,42,26,30.15,30.06,10,2,20,0.00
2013-8-30,85,74,63,54,52,50,68,47,31,30.15,30.07,8,2,14,0.00
2013-8-31,86,75,67,55,48,-100,58,42,27,30.11,30.02,11,3,20,0.00
2013-9-1,84,74,66,58,54,51,71,52,34,30.06,29.99,10,1,16,0.00
2013-9-2,84,74,66,57,54,49,66,51,30,30.04,29.98,10,2,18,0.00
2013-9-3,84,72,62,59,56,52,86,59,34,30.07,30.01,9,2,17,0.00
2013-9-4,85,72,59,56,51,47,77,50,28,30.09,30.03,12,2,19,0.00
2013-9-5,85,73,58,52,49,45,69,45,25,30.08,30.03,9,2,19,0.00
2013-9-6,88,73,58,53,47,38,73,43,18,30.08,29.98,10,2,17,0.00
2013-9-7,88,74,58,43,34,-100,48,27,12,30.04,29.97,12,3,19,0.00
2013-9-8,87,75,65,42,36,26,33,24,18,30.01,29.91,8,2,17,0.00
2013-9-9,85,75,66,47,42,37,48,32,21,29.97,29.86,10,2,21,0.00
2013-9-10,85,74,66,43,40,38,40,30,20,29.98,29.88,10,2,17,0.00
2013-9-11,80,70,62,46,41,38,49,36,26,30.05,29.98,9,3,17,0.00
2013-9-12,80,68,58,47,42,37,56,40,22,30.05,29.97,10,3,16,0.00
2013-9-13,83,71,60,48,46,41,56,41,27,30.01,29.87,9,3,17,0.00
2013-9-14,86,71,59,50,45,-100,62,42,26,29.90,29.83,7,2,17,0.00
2013-9-15,89,73,58,50,46,33,66,43,14,29.96,29.88,10,2,19,0.00
2013-9-16,87,71,55,50,41,28,71,40,12,29.96,29.89,16,3,25,0.00
2013-9-17,74,64,54,49,44,39,67,49,37,29.92,29.84,11,4,23,0.00
2013-9-18,59,55,52,43,42,40,67,60,52,29.93,29.85,9,4,15,0.00
2013-9-19,83,66,47,42,34,21,69,37,11,29.93,29.87,13,3,21,0.00
2013-9-20,84,68,53,40,33,24,44,29,12,29.92,29.86,13,5,23,0.00
2013-9-21,65,56,50,49,39,-100,89,59,35,29.91,29.80,13,9,24,0.03
2013-9-22,56,50,45,46,41,39,85,71,53,30.00,29.84,16,6,27,0.01
2013-9-23,77,58,42,46,40,28,85,57,18,30.05,29.98,8,2,15,0.00
2013-9-24,78,63,48,43,36,26,67,41,16,30.04,29.91,10,3,20,0.00
2013-9-25,61,52,47,45,40,34,86,64,44,29.91,29.73,15,10,27,0.00
2013-9-26,55,48,42,38,34,26,85,60,33,29.96,29.73,17,6,24,0.00
2013-9-27,66,53,41,33,29,24,64,43,22,30.11,29.96,7,2,15,0.00
2013-9-28,74,57,39,30,23,-100,61,31,12,30.16,30.08,12,2,18,0.00
2013-9-29,75,62,46,29,23,16,45,24,11,30.16,30.09,10,4,33,0.00
2013-9-30,70,62,54,46,38,25,65,41,26,30.12,30.00,11,6,19,0.00
2013-10-1,67,60,56,49,48,48,77,66,51,29.98,29.96,6,2,11,0.00
2013-10-2,67,59,51,50,46,37,91,64,35,29.99,29.94,12,4,22,0.00
2013-10-3,61,54,45,43,35,30,67,50,32,29.98,29.91,14,7,24,0.00
2013-10-4,64,56,42,32,13,8,65,20,11,30.19,29.98,17,10,31,0.00
2013-10-5,69,60,50,18,14,8,27,16,10,30.27,30.19,18,9,33,0.00
2013-10-6,75,65,50,16,11,5,23,13,7,30.22,30.10,13,6,27,0.00
2013-10-7,76,60,47,24,14,8,28,17,8,30.10,29.95,6,1,14,0.00
2013-10-8,69,60,51,29,25,20,38,27,16,29.95,29.73,10,4,34,0.00
2013-10-9,53,46,39,39,34,25,91,67,35,29.74,29.59,11,3,18,0.38
2013-10-10,57,47,38,40,37,35,90,70,45,29.98,29.74,12,4,25,0.05
2013-10-11,67,57,48,38,35,27,64,46,23,30.04,29.98,7,2,14,0.00
2013-10-12,66,52,39,38,32,-100,76,50,26,30.01,29.91,8,2,14,0.00
2013-10-13,57,50,43,37,35,33,73,56,40,30.07,29.89,10,3,17,0.00
2013-10-14,65,52,39,36,30,23,84,48,21,30.11,30.03,13,3,19,0.00
2013-10-15,66,54,40,30,24,19,56,34,19,30.08,30.01,11,2,19,0.00
2013-10-16,69,56,43,24,19,13,41,25,13,30.17,30.08,8,2,19,0.00
2013-10-17,67,57,49,30,26,18,45,31,23,30.11,30.03,7,3,18,0.00
2013-10-18,73,57,42,28,22,15,58,31,11,30.12,30.05,12,2,24,0.00
2013-10-19,76,58,43,28,18,-100,35,23,8,30.15,30.08,7,1,15,0.00
2013-10-20,72,59,43,30,23,14,39,26,14,30.10,29.99,7,1,14,0.00
2013-10-21,74,58,43,21,15,9,37,20,10,30.08,30.01,14,3,21,0.00
2013-10-22,74,62,50,20,18,15,26,19,11,30.09,30.00,12,3,19,0.00
2013-10-23,74,60,48,35,23,16,36,25,11,30.02,29.94,13,2,22,0.00
2013-10-24,71,59,45,33,28,23,52,32,17,30.10,29.99,7,1,21,0.00
2013-10-25,70,60,47,39,32,21,53,35,22,30.19,30.13,6,1,12,0.00
2013-10-26,76,59,45,26,19,-100,42,24,11,30.19,30.09,9,2,16,0.00
2013-10-27,72,59,47,37,26,18,52,31,13,30.10,29.70,15,4,32,0.00
2013-10-28,53,43,40,39,34,-100,90,72,53,29.84,29.66,17,10,30,0.14
2013-10-29,45,42,40,39,36,34,92,79,66,29.96,29.84,12,5,18,0.20
2013-10-30,54,43,36,40,35,31,85,73,53,30.09,29.96,7,1,11,0.01
2013-10-31,64,46,33,35,27,17,89,57,17,30.14,30.08,10,2,18,0.00
2013-11-1,66,54,39,25,23,20,49,30,18,30.20,30.09,12,3,21,0.00
2013-11-2,69,54,40,33,24,-100,51,34,17,30.10,29.92,11,3,18,0.00
2013-11-3,55,47,41,41,36,32,90,66,48,29.96,29.85,11,5,22,0.00
2013-11-4,49,41,35,33,28,25,75,59,41,30.01,29.80,10,2,18,0.00
2013-11-5,55,45,30,27,12,6,78,32,15,30.24,30.01,9,3,22,0.00
2013-11-6,62,53,39,16,10,6,27,18,12,30.30,30.23,14,5,29,0.00
2013-11-7,67,55,45,25,18,14,34,24,15,30.24,30.10,11,2,22,0.00
2013-11-8,68,52,40,27,17,7,41,25,13,30.10,29.99,6,1,14,0.00
2013-11-9,71,54,39,15,8,-100,31,17,8,30.11,30.02,7,1,14,0.00
2013-11-10,68,55,44,16,13,9,28,19,12,30.15,30.10,14,3,23,0.00
2013-11-11,70,58,45,19,15,13,29,19,12,30.23,30.12,12,3,26,0.00
2013-11-12,70,60,47,31,19,13,46,21,12,30.31,30.21,7,1,14,0.00
2013-11-13,64,51,40,38,29,21,58,44,26,30.25,30.12,7,1,13,0.00
2013-11-14,71,54,42,37,30,23,60,42,16,30.12,29.84,8,1,15,0.00
2013-11-15,52,46,38,40,37,32,88,71,46,29.83,29.68,14,6,21,0.00
2013-11-16,53,44,38,37,30,-100,91,64,35,29.88,29.72,14,6,23,0.00
2013-11-17,59,46,34,35,32,29,81,61,33,30.08,29.89,8,2,14,0.00
2013-11-18,58,46,37,38,35,31,82,65,43,30.11,30.02,8,1,16,0.00
2013-11-19,52,44,39,41,38,35,89,79,64,30.06,29.94,9,2,13,0.00
2013-11-20,57,48,42,44,40,37,91,77,55,29.94,29.82,8,2,19,0.02
2013-11-21,50,44,37,46,42,34,97,91,75,29.91,29.79,9,3,16,0.82
2013-12-1,64,47,34,33,25,18,71,47,18,30.30,30.22,8,1,11,0.00
2013-12-2,63,50,36,28,21,16,58,35,18,30.24,29.91,14,5,22,0.00
2013-12-3,51,44,33,41,35,21,91,73,30,29.91,29.62,18,12,30,0.04
2013-12-4,37,30,22,25,20,16,80,68,55,29.90,29.72,12,4,22,0.01
2013-12-5,34,25,18,20,16,11,84,69,52,29.99,29.87,7,1,11,0.00
2013-12-6,41,26,15,13,6,-7,75,48,13,30.02,29.96,8,1,15,0.00
2013-12-7,37,32,28,32,23,12,93,70,48,29.96,29.81,16,7,32,0.07
2013-12-10,46,35,25,11,4,-5,42,27,19,30.29,30.11,9,3,19,0.00
2013-12-11,48,40,30,13,9,4,45,28,19,30.22,30.11,14,4,23,0.00
2013-12-12,57,44,35,16,12,9,40,28,17,30.20,30.11,7,2,14,0.00
2013-12-13,50,41,32,22,15,9,58,36,23,30.27,30.10,8,2,14,0.00
2013-12-14,54,47,37,18,14,-100,45,27,20,30.37,30.26,13,5,29,0.00
2013-12-15,63,52,41,17,14,11,36,24,13,30.36,30.24,11,4,24,0.00
2013-12-16,67,57,47,18,15,12,29,20,12,30.28,30.21,15,5,23,0.00
2013-12-17,67,56,49,20,16,14,30,21,14,30.25,30.09,11,4,19,0.00
2013-12-18,63,54,44,28,22,16,53,29,18,30.08,29.72,6,1,9,0.00
2013-12-19,44,39,36,35,33,27,96,81,54,29.80,29.61,11,3,23,0.02
2013-12-20,44,35,28,35,30,24,96,84,63,29.92,29.78,8,1,12,0.01